Weather History for Manistique, MI

Change the Weather History Date:

Tuesday, December 31, 2013

  Actual Average Record
Temperature  
Mean Temperature 2 °F -  
Max Temperature 8 °F 28 °F 52 °F (1965)
Min Temperature -4 °F 9 °F -16 °F (1967)
Degree Days  
Heating Degree Days 63    
Moisture  
Dew Point -9 °F    
Average Humidity 65    
Maximum Humidity 81    
Minimum Humidity 47    
Precipitation  
Precipitation 0.00 in - - ()
Sea Level Pressure  
Sea Level Pressure 30.10 in    
Wind  
Wind Speed 11 mph (West)    
Max Wind Speed 18 mph    
Max Gust Speed 23 mph    
Visibility 10 miles    
Events      
Averages and records for this station are not official NWS values.
T = Trace of Precipitation, MM = Missing Value Source: NWS Daily Summary

Daily Weather History Graph

Daily Weather History Graph

Search for Another Location

Airport:

Trip Planner

Search our weather history database for the weather conditions in past years. The results will help you decide how hot, cold, wet, or windy it might be!

Date:

Astronomy

Dec. 31, 2013 Rise Set
Actual Time 8:26 AM EST 5:09 PM EST
Civil Twilight 7:52 AM EST 5:43 PM EST
Nautical Twilight 7:14 AM EST 6:21 PM EST
Astronomical Twilight 6:37 AM EST 6:57 PM EST
Moon 7:16 AM EST (12/31) 4:47 PM EST (12/31)
Length of Visible Light 9h 51m
Length of Day
8h 42m
Waning Crescent, 1% of the Moon is Illuminated
Dec 31
Waning Crescent
Jan 1
New
Jan 7
First Quarter
Jan 15
Full
Jan 24
Last Quarter

Hourly Weather History & Observations

Time (EST) Temp. Windchill Dew Point Humidity Pressure Visibility Wind Dir Wind Speed Gust Speed Precip Events Conditions
12:14 AM 3.2 °F -9.1 °F -4.9 °F 69% 30.03 in 10.0 mi WNW 6.9 mph - N/A   Overcast
12:35 AM 3.4 °F -10.0 °F -3.8 °F 72% 30.02 in 7.0 mi WNW 8.1 mph - N/A   Overcast
12:54 AM 3.2 °F -11.3 °F -2.7 °F 76% 30.02 in 7.0 mi WNW 9.2 mph - N/A   Overcast
1:14 AM 3.2 °F -9.1 °F -2.2 °F 78% 30.01 in 7.0 mi WNW 6.9 mph - N/A   Overcast
1:35 AM 3.2 °F -11.3 °F -1.7 °F 80% 30.01 in 3.0 mi WNW 9.2 mph - N/A   Haze
1:54 AM 2.3 °F -12.4 °F -2.2 °F 81% 30.01 in 10.0 mi WNW 9.2 mph - N/A   Overcast
2:14 AM 1.4 °F -13.5 °F -3.6 °F 79% 30.01 in 10.0 mi WNW 9.2 mph - N/A   Mostly Cloudy
2:35 AM 0.5 °F -15.6 °F -4.7 °F 79% 30.00 in 10.0 mi WNW 10.4 mph - N/A   Clear
2:54 AM -0.4 °F -17.6 °F -5.4 °F 79% 30.00 in 10.0 mi WNW 11.5 mph - N/A   Clear
3:15 AM -1.1 °F -17.6 °F -6.2 °F 79% 30.00 in 10.0 mi WNW 10.4 mph - N/A   Clear
3:35 AM -1.5 °F -19.0 °F -6.9 °F 78% 30.00 in 10.0 mi WNW 11.5 mph - N/A   Clear
3:54 AM -1.7 °F -19.2 °F -7.6 °F 76% 30.00 in 10.0 mi WNW 11.5 mph - N/A   Clear
4:15 AM -1.7 °F -19.2 °F -7.6 °F 76% 30.00 in 10.0 mi WNW 11.5 mph - N/A   Mostly Cloudy
4:34 AM -1.7 °F -20.0 °F -8.0 °F 75% 29.99 in 10.0 mi WNW 12.7 mph - N/A   Overcast
4:54 AM -2.4 °F -21.7 °F -8.7 °F 75% 30.00 in 10.0 mi WNW 13.8 mph - N/A   Scattered Clouds
5:15 AM -3.6 °F -22.5 °F -9.4 °F 76% 29.99 in 10.0 mi WNW 12.7 mph - N/A   Scattered Clouds
5:34 AM -3.5 °F -20.5 °F -9.4 °F 76% 30.00 in 10.0 mi WNW 10.4 mph - N/A   Scattered Clouds
5:54 AM -3.6 °F -23.3 °F -9.6 °F 76% 29.99 in 10.0 mi WNW 13.8 mph - N/A   Clear
6:15 AM -4.0 °F -23.0 °F -9.9 °F 76% 30.00 in 10.0 mi WNW 12.7 mph - N/A   Clear
6:34 AM -4.5 °F -23.6 °F -10.3 °F 76% 30.00 in 10.0 mi WNW 12.7 mph - N/A   Clear
6:55 AM -4.4 °F -24.2 °F -10.3 °F 76% 30.00 in 10.0 mi WNW 13.8 mph - N/A   Clear
7:15 AM -4.4 °F -23.4 °F -10.3 °F 76% 30.01 in 10.0 mi WNW 12.7 mph - N/A   Clear
7:34 AM -4.0 °F -23.7 °F -9.9 °F 76% 30.01 in 10.0 mi West 13.8 mph - N/A   Clear
7:55 AM -3.1 °F -21.8 °F -9.4 °F 74% 30.02 in 10.0 mi West 12.7 mph - N/A   Clear
8:14 AM -3.3 °F -23.6 °F -10.1 °F 73% 30.02 in 10.0 mi West 15.0 mph 19.6 mph N/A   Clear
8:34 AM -3.3 °F -21.2 °F -10.3 °F 72% 30.03 in 10.0 mi West 11.5 mph 17.3 mph N/A   Clear
8:55 AM -4.2 °F -22.3 °F -11.2 °F 72% 30.03 in 10.0 mi West 11.5 mph - N/A   Clear
9:14 AM -3.3 °F -21.2 °F -10.8 °F 70% 30.03 in 10.0 mi WNW 11.5 mph - N/A   Clear
9:34 AM -2.2 °F -20.7 °F -10.3 °F 68% 30.04 in 10.0 mi West 12.7 mph 17.3 mph N/A   Clear
9:55 AM -0.4 °F -19.2 °F -9.4 °F 66% 30.05 in 10.0 mi West 13.8 mph 20.7 mph N/A   Clear
10:14 AM 0.1 °F -16.9 °F -9.4 °F 64% 30.05 in 10.0 mi West 11.5 mph - N/A   Clear
10:35 AM 1.6 °F -13.3 °F -8.7 °F 62% 30.06 in 10.0 mi West 9.2 mph - N/A   Clear
10:54 AM 2.3 °F -12.4 °F -8.7 °F 60% 30.07 in 10.0 mi West 9.2 mph - N/A   Clear
11:14 AM 3.2 °F -14.6 °F -8.5 °F 58% 30.07 in 10.0 mi West 13.8 mph 20.7 mph N/A   Clear
11:35 AM 4.1 °F -13.4 °F -8.5 °F 56% 30.06 in 10.0 mi West 13.8 mph 19.6 mph N/A   Clear
11:54 AM 4.6 °F -15.2 °F -8.0 °F 56% 30.06 in 10.0 mi West 18.4 mph - N/A   Clear
12:15 PM 6.3 °F -11.3 °F -8.0 °F 52% 30.06 in 10.0 mi West 15.0 mph 19.6 mph N/A   Clear
12:35 PM 6.4 °F -11.1 °F -7.6 °F 53% 30.06 in 10.0 mi West 15.0 mph 23.0 mph N/A   Clear
12:54 PM 7.2 °F -10.2 °F -8.0 °F 50% 30.06 in 10.0 mi West 15.0 mph 20.7 mph N/A   Clear
1:15 PM 8.2 °F -8.8 °F -8.1 °F 47% 30.06 in 10.0 mi West 15.0 mph 21.9 mph N/A   Clear
1:34 PM 7.7 °F -10.7 °F -8.1 °F 49% 30.07 in 10.0 mi WNW 17.3 mph - N/A   Clear
1:54 PM 7.7 °F -8.9 °F -7.4 °F 50% 30.07 in 10.0 mi West 13.8 mph 20.7 mph N/A   Clear
2:15 PM 7.3 °F -11.1 °F -7.6 °F 51% 30.08 in 10.0 mi WNW 17.3 mph 23.0 mph N/A   Clear
2:34 PM 7.5 °F -10.3 °F -7.6 °F 50% 30.09 in 10.0 mi West 16.1 mph 23.0 mph N/A   Clear
2:55 PM 7.5 °F -7.7 °F -7.8 °F 50% 30.10 in 10.0 mi WNW 11.5 mph - N/A   Clear
3:15 PM 7.7 °F -9.5 °F -8.1 °F 49% 30.11 in 10.0 mi West 15.0 mph - N/A   Clear
3:34 PM 7.7 °F -7.4 °F -8.5 °F 48% 30.12 in 10.0 mi West 11.5 mph 18.4 mph N/A   Clear
3:55 PM 6.8 °F -11.8 °F -8.5 °F 50% 30.12 in 10.0 mi West 17.3 mph 23.0 mph N/A   Clear
4:15 PM 6.6 °F -10.9 °F -9.4 °F 48% 30.14 in 10.0 mi West 15.0 mph 20.7 mph N/A   Clear
4:34 PM 5.5 °F -10.9 °F -9.4 °F 50% 30.14 in 10.0 mi West 12.7 mph - N/A   Clear
4:55 PM 4.6 °F -9.5 °F -8.5 °F 55% 30.15 in 10.0 mi West 9.2 mph - N/A   Clear
5:14 PM 3.2 °F -12.2 °F -8.1 °F 59% 30.17 in 10.0 mi West 10.4 mph - N/A   Clear
5:35 PM 2.8 °F -13.5 °F -10.3 °F 54% 30.18 in 10.0 mi West 11.5 mph - N/A   Clear
5:54 PM 2.5 °F -14.0 °F -9.9 °F 56% 30.19 in 10.0 mi West 11.5 mph - N/A   Clear
6:14 PM 1.6 °F -12.2 °F -10.5 °F 57% 30.20 in 10.0 mi West 8.1 mph - N/A   Clear
6:35 PM 2.3 °F -11.4 °F -10.1 °F 56% 30.21 in 10.0 mi West 8.1 mph - N/A   Clear
6:54 PM 1.8 °F -13.1 °F -10.3 °F 57% 30.22 in 10.0 mi West 9.2 mph - N/A   Clear
6:59 PM 1.4 °F -13.5 °F -10.5 °F 58% 30.22 in 10.0 mi West 9.2 mph - N/A   Clear
7:35 PM 0.3 °F -15.8 °F -10.8 °F 59% 30.23 in 10.0 mi West 10.4 mph - N/A   Clear
7:54 PM 0.5 °F -16.5 °F -10.8 °F 59% 30.23 in 10.0 mi West 11.5 mph 17.3 mph N/A   Clear
8:15 PM 0.1 °F -14.0 °F -11.2 °F 59% 30.24 in 10.0 mi West 8.1 mph - N/A   Clear
8:35 PM -0.6 °F -14.9 °F -11.2 °F 61% 30.24 in 10.0 mi West 8.1 mph - N/A   Clear
8:54 PM -0.9 °F -14.1 °F -11.4 °F 61% 30.25 in 10.0 mi West 6.9 mph - N/A   Clear
9:15 PM -1.3 °F -14.5 °F -11.7 °F 61% 30.25 in 10.0 mi WSW 6.9 mph - N/A   Clear
9:34 PM -1.7 °F -14.9 °F -11.2 °F 64% 30.26 in 10.0 mi West 6.9 mph - N/A   Scattered Clouds
9:54 PM -1.8 °F -17.5 °F -11.2 °F 64% 30.26 in 10.0 mi West 9.2 mph - N/A   Mostly Cloudy
10:15 PM -2.2 °F -14.2 °F -11.2 °F 66% 30.27 in 10.0 mi WSW 5.8 mph - N/A   Scattered Clouds
10:34 PM -3.1 °F -17.9 °F -11.2 °F 68% 30.28 in 10.0 mi West 8.1 mph - N/A   Clear
10:54 PM -3.3 °F -18.2 °F -11.2 °F 69% 30.28 in 10.0 mi West 8.1 mph - N/A   Clear
11:15 PM -3.3 °F -19.3 °F -11.0 °F 69% 30.29 in 10.0 mi West 9.2 mph - N/A   Clear
11:34 PM -4.0 °F -20.2 °F -11.2 °F 71% 30.29 in 10.0 mi West 9.2 mph - N/A   Clear
11:55 PM -4.7 °F -23.0 °F -11.6 °F 72% 30.29 in 10.0 mi West 11.5 mph - N/A   Clear